sat.trackr.live / text

‹ back to catalog

STARLINK-36160

NORAD 66936 · 2025-286M

PAYLOAD ACTIVE UNKNOWN

§ Identity

Operator
Country
US
Launch date
2025-12-07
Launch site
AFWTR
Launch vehicle
Mass (kg)
RCS (m²)

Purposes: comms

External: N2YO · Heavens-Above · Gunter

§ Orbital elements

Epoch: 2026-09-20T11:06:18.233856Z

Period
93.85 min
Inclination
53.1590°
Eccentricity
0.0001288
Mean motion
15.34397600 rev/d
Perigee alt
461.8 km
Apogee alt
463.6 km
Semi-major
6,840.8 km
B*
5.6235e-4
RAAN
169.7619°
Arg perigee
78.7436°
Mean anomaly
281.3711°
Rev number
4,528

§ Raw data

STARLINK-361601 66936U 25286M   26263.46271104  .00018670  00000+0  56235-3 0  99922 66936  53.1590 169.7619 0001288  78.7436 281.3711 15.34397600 45288

JSON: /api/v1/satellites/66936 · /tle

For live sub-satellite position, see the globe view (requires WebGL).

§ Visibility from observer

Set your observer location to see the next 7 days of passes ≥ 10°. The values pass through the URL so the page stays shareable.

No JS? Fill the form by hand. The geolocation button needs JavaScript.